Location: Newark
(35.2161°N, 26.1013°E)
Time: 15:34:36
(UTC+00:00)

BEESAT 2 - Pass Details

Date: 22 January 2020
Orbit: 493 x 534 km, 64.9° (Epoch: 17 February)

Event Time Altitude Azimuth Distance (km) Brightness Sun altitude
Exits shadow 03:26:54 - 7° (N) 2,202 ? -23.2°
Reaches altitude 10° 03:29:25 10° 37° (NE) 1,788 ? -22.7°
Maximum altitude 03:30:04 10° 46° (NE) 1,765 ? -22.6°
Drops below altitude 10° 03:30:44 10° 56° (NE) 1,785 ? -22.5°
Sets 03:34:56 0° 99° (E) 2,662 ? -21.6°
